Time,TemperatureF,DewpointF,PressureIn,WindDirection,WindDirectionDegrees,WindSpeedMPH,WindSpeedGustMPH,Humidity,HourlyPrecipIn,Conditions,Clouds,dailyrainin,SoftwareType,DateUTC
2013-04-21 00:00:00,47.1,18.1,30.44,North,0,2.7,7.8,31,0.00,,CLR,0.00,VWS V14.01,2013-04-21 04:00:00,
2013-04-21 00:01:00,47.1,18.1,30.44,ENE,68,2.9,7.8,31,0.00,,CLR,0.00,VWS V14.01,2013-04-21 04:01:00,
2013-04-21 00:06:00,46.9,17.9,30.44,North,0,3.4,7.8,31,0.00,,CLR,0.00,VWS V14.01,2013-04-21 04:06:00,
2013-04-21 00:11:00,46.8,17.7,30.44,SSE,158,1.6,7.8,31,0.00,,CLR,0.00,VWS V14.01,2013-04-21 04:11:00,
2013-04-21 00:16:00,46.8,17.7,30.44,WNW,292,3.6,7.8,31,0.00,,CLR,0.00,VWS V14.01,2013-04-21 04:16:00,
2013-04-21 00:21:00,46.6,17.6,30.44,NE,45,0.0,7.8,31,0.00,,CLR,0.00,VWS V14.01,2013-04-21 04:21:00,
2013-04-21 00:26:00,46.4,18.2,30.44,NE,45,2.9,7.8,32,0.00,,CLR,0.00,VWS V14.01,2013-04-21 04:26:00,
2013-04-21 00:31:00,46.4,17.4,30.44,NNE,22,2.5,7.8,31,0.00,,CLR,0.00,VWS V14.01,2013-04-21 04:31:00,
2013-04-21 00:36:00,46.2,18.0,30.44,ENE,68,2.2,7.8,32,0.00,,CLR,0.00,VWS V14.01,2013-04-21 04:36:00,
2013-04-21 00:41:00,46.2,18.0,30.44,NNE,22,3.1,7.8,32,0.00,,CLR,0.00,VWS V14.01,2013-04-21 04:41:00,
2013-04-21 00:46:00,46.0,17.9,30.44,NE,45,0.0,7.8,32,0.00,,CLR,0.00,VWS V14.01,2013-04-21 04:46:00,
2013-04-21 00:51:00,46.0,17.9,30.44,ENE,68,2.7,7.8,32,0.00,,CLR,0.00,VWS V14.01,2013-04-21 04:51:00,
2013-04-21 00:56:00,45.9,18.4,30.44,NNE,22,3.4,7.8,33,0.00,,CLR,0.00,VWS V14.01,2013-04-21 04:56:00,
2013-04-21 01:01:00,45.7,18.2,30.44,ESE,112,0.9,4.5,33,0.00,,CLR,0.00,VWS V14.01,2013-04-21 05:01:00,
2013-04-21 01:06:00,45.7,18.2,30.44,ESE,112,0.0,5.6,33,0.00,,CLR,0.00,VWS V14.01,2013-04-21 05:06:00,
2013-04-21 01:11:00,45.7,18.2,30.44,NE,45,1.6,5.6,33,0.00,,CLR,0.00,VWS V14.01,2013-04-21 05:11:00,
2013-04-21 01:16:00,45.5,18.1,30.44,SSW,202,3.4,5.6,33,0.00,,CLR,0.00,VWS V14.01,2013-04-21 05:16:00,
2013-04-21 01:21:00,45.5,18.8,30.44,ESE,112,2.0,5.6,34,0.00,,CLR,0.00,VWS V14.01,2013-04-21 05:21:00,
2013-04-21 01:26:00,45.3,18.6,30.44,NNE,22,2.0,5.6,34,0.00,,CLR,0.00,VWS V14.01,2013-04-21 05:26:00,
2013-04-21 01:31:00,45.3,18.6,30.44,ENE,68,1.3,6.5,34,0.00,,CLR,0.00,VWS V14.01,2013-04-21 05:31:00,
2013-04-21 01:36:00,45.3,18.6,30.44,NE,45,1.3,6.5,34,0.00,,CLR,0.00,VWS V14.01,2013-04-21 05:36:00,
2013-04-21 01:41:00,45.1,18.5,30.44,East,90,4.0,6.5,34,0.00,,CLR,0.00,VWS V14.01,2013-04-21 05:41:00,
2013-04-21 01:46:00,45.0,18.3,30.44,ENE,68,1.3,6.5,34,0.00,,CLR,0.00,VWS V14.01,2013-04-21 05:46:00,
2013-04-21 01:51:00,45.0,18.3,30.44,ESE,112,0.9,6.5,34,0.00,,CLR,0.00,VWS V14.01,2013-04-21 05:51:00,
2013-04-21 01:56:00,44.8,18.1,30.44,ENE,68,6.0,6.5,34,0.00,,CLR,0.00,VWS V14.01,2013-04-21 05:56:00,
2013-04-21 02:01:00,44.8,18.1,30.44,NNW,338,2.7,3.8,34,0.00,,CLR,0.00,VWS V14.01,2013-04-21 06:01:00,
2013-04-21 02:06:00,44.6,18.0,30.44,NE,45,2.0,4.9,34,0.00,,CLR,0.00,VWS V14.01,2013-04-21 06:06:00,
2013-04-21 02:11:00,44.6,18.0,30.44,ENE,68,0.0,4.9,34,0.00,,CLR,0.00,VWS V14.01,2013-04-21 06:11:00,
2013-04-21 02:16:00,44.4,18.5,30.44,ENE,68,4.0,4.9,35,0.00,,CLR,0.00,VWS V14.01,2013-04-21 06:16:00,
2013-04-21 02:21:00,44.4,17.8,30.44,East,90,2.2,4.9,34,0.00,,CLR,0.00,VWS V14.01,2013-04-21 06:21:00,
2013-04-21 02:26:00,44.2,17.7,30.44,NNE,22,2.7,4.9,34,0.00,,CLR,0.00,VWS V14.01,2013-04-21 06:26:00,
2013-04-21 02:31:00,44.2,18.3,30.44,NE,45,2.0,4.9,35,0.00,,CLR,0.00,VWS V14.01,2013-04-21 06:31:00,
2013-04-21 02:36:00,44.1,18.2,30.44,NNE,22,0.0,4.9,35,0.00,,CLR,0.00,VWS V14.01,2013-04-21 06:36:00,
2013-04-21 02:41:00,43.9,18.0,30.44,ESE,112,2.7,4.9,35,0.00,,CLR,0.00,VWS V14.01,2013-04-21 06:41:00,
2013-04-21 02:46:00,43.7,17.9,30.44,NW,315,2.7,4.9,35,0.00,,CLR,0.00,VWS V14.01,2013-04-21 06:46:00,
2013-04-21 02:51:00,43.7,17.9,30.44,NE,45,0.9,6.0,35,0.00,,CLR,0.00,VWS V14.01,2013-04-21 06:51:00,
2013-04-21 02:56:00,43.5,17.7,30.44,North,0,2.9,6.0,35,0.00,,CLR,0.00,VWS V14.01,2013-04-21 06:56:00,
2013-04-21 03:01:00,43.5,17.7,30.44,North,0,2.0,3.6,35,0.00,,FEW230,0.00,VWS V14.01,2013-04-21 07:01:00,
2013-04-21 03:06:00,43.3,18.8,30.44,NE,45,1.3,4.7,37,0.00,,FEW230,0.00,VWS V14.01,2013-04-21 07:06:00,
2013-04-21 03:11:00,43.2,18.0,30.44,ENE,68,2.5,4.7,36,0.00,,FEW230,0.00,VWS V14.01,2013-04-21 07:11:00,
2013-04-21 03:16:00,43.2,18.7,30.44,SSE,158,2.0,4.7,37,0.00,,FEW230,0.00,VWS V14.01,2013-04-21 07:16:00,
2013-04-21 03:21:00,43.2,18.7,30.44,ENE,68,0.0,6.5,37,0.00,,FEW230,0.00,VWS V14.01,2013-04-21 07:21:00,
2013-04-21 03:26:00,43.2,18.7,30.44,ESE,112,2.2,6.5,37,0.00,,FEW230,0.00,VWS V14.01,2013-04-21 07:26:00,
2013-04-21 03:31:00,43.0,18.5,30.44,ENE,68,2.0,6.5,37,0.00,,FEW230,0.00,VWS V14.01,2013-04-21 07:31:00,
2013-04-21 03:36:00,43.0,18.5,30.44,ENE,68,0.9,6.5,37,0.00,,FEW230,0.00,VWS V14.01,2013-04-21 07:36:00,
2013-04-21 03:41:00,43.0,19.1,30.44,East,90,2.0,6.5,38,0.00,,FEW230,0.00,VWS V14.01,2013-04-21 07:41:00,
2013-04-21 03:46:00,43.0,19.1,30.44,NE,45,1.6,6.5,38,0.00,,FEW230,0.00,VWS V14.01,2013-04-21 07:46:00,
2013-04-21 03:51:00,43.0,19.1,30.44,NNE,22,2.9,6.5,38,0.00,,FEW230,0.00,VWS V14.01,2013-04-21 07:51:00,
2013-04-21 03:56:00,43.0,19.1,30.44,ENE,68,0.0,6.5,38,0.00,,FEW230,0.00,VWS V14.01,2013-04-21 07:56:00,
2013-04-21 04:01:00,42.8,19.0,30.44,ENE,68,1.1,3.6,38,0.00,,BKN200,0.00,VWS V14.01,2013-04-21 08:01:00,
2013-04-21 04:06:00,42.8,19.0,30.44,SSE,158,0.0,4.0,38,0.00,,BKN200,0.00,VWS V14.01,2013-04-21 08:06:00,
2013-04-21 04:11:00,42.8,19.0,30.44,NW,315,1.1,4.0,38,0.00,,BKN200,0.00,VWS V14.01,2013-04-21 08:11:00,
2013-04-21 04:16:00,42.8,19.0,30.44,ENE,68,0.0,4.0,38,0.00,,BKN200,0.00,VWS V14.01,2013-04-21 08:16:00,
2013-04-21 04:21:00,42.6,18.8,30.47,ENE,68,0.0,4.0,38,0.00,,BKN200,0.00,VWS V14.01,2013-04-21 08:21:00,
2013-04-21 04:26:00,42.6,18.8,30.47,ENE,68,0.0,4.0,38,0.00,,BKN200,0.00,VWS V14.01,2013-04-21 08:26:00,
2013-04-21 04:31:00,42.4,18.6,30.44,ENE,68,1.1,4.0,38,0.00,,BKN200,0.00,VWS V14.01,2013-04-21 08:31:00,
2013-04-21 04:36:00,42.4,18.6,30.44,NE,45,4.0,4.0,38,0.00,,BKN200,0.00,VWS V14.01,2013-04-21 08:36:00,
2013-04-21 04:41:00,42.4,18.6,30.44,NE,45,0.0,7.4,38,0.00,,BKN200,0.00,VWS V14.01,2013-04-21 08:41:00,
2013-04-21 04:46:00,42.3,18.5,30.44,South,180,0.0,7.4,38,0.00,,BKN200,0.00,VWS V14.01,2013-04-21 08:46:00,
2013-04-21 04:51:00,42.3,18.5,30.47,NNE,22,0.0,7.4,38,0.00,,BKN200,0.00,VWS V14.01,2013-04-21 08:51:00,
2013-04-21 04:56:00,42.1,18.3,30.47,ENE,68,1.6,7.4,38,0.00,,BKN200,0.00,VWS V14.01,2013-04-21 08:56:00,
2013-04-21 05:01:00,42.1,18.3,30.47,NE,45,1.1,1.6,38,0.00,,BKN190,0.00,VWS V14.01,2013-04-21 09:01:00,
2013-04-21 05:06:00,41.7,18.0,30.47,NNE,22,0.0,1.6,38,0.00,,BKN190,0.00,VWS V14.01,2013-04-21 09:06:00,
2013-04-21 05:11:00,41.7,18.6,30.47,NNE,22,1.3,2.7,39,0.00,,BKN190,0.00,VWS V14.01,2013-04-21 09:11:00,
2013-04-21 05:16:00,41.5,18.4,30.47,ENE,68,0.0,2.7,39,0.00,,BKN190,0.00,VWS V14.01,2013-04-21 09:16:00,
2013-04-21 05:21:00,41.4,18.3,30.47,NE,45,0.0,2.7,39,0.00,,BKN190,0.00,VWS V14.01,2013-04-21 09:21:00,
2013-04-21 05:26:00,41.2,18.1,30.47,NE,45,0.0,2.9,39,0.00,,BKN190,0.00,VWS V14.01,2013-04-21 09:26:00,
2013-04-21 05:31:00,41.0,18.0,30.47,ENE,68,0.0,2.9,39,0.00,,BKN190,0.00,VWS V14.01,2013-04-21 09:31:00,
2013-04-21 05:36:00,40.8,18.4,30.47,NNE,22,1.3,2.9,40,0.00,,BKN190,0.00,VWS V14.01,2013-04-21 09:36:00,
2013-04-21 05:41:00,40.6,18.2,30.47,NNE,22,0.0,2.9,40,0.00,,BKN190,0.00,VWS V14.01,2013-04-21 09:41:00,
2013-04-21 05:46:00,40.6,18.2,30.47,NNW,338,1.6,2.9,40,0.00,,BKN190,0.00,VWS V14.01,2013-04-21 09:46:00,
2013-04-21 05:51:00,40.6,18.2,30.47,ENE,68,0.0,2.9,40,0.00,,BKN190,0.00,VWS V14.01,2013-04-21 09:51:00,
2013-04-21 05:56:00,40.5,18.1,30.47,ENE,68,0.0,2.9,40,0.00,,BKN190,0.00,VWS V14.01,2013-04-21 09:56:00,
2013-04-21 06:01:00,40.5,18.1,30.50,ENE,68,0.0,3.1,40,0.00,,SCT180,0.00,VWS V14.01,2013-04-21 10:01:00,
2013-04-21 06:06:00,40.5,18.6,30.50,NE,45,0.0,3.4,41,0.00,,SCT180,0.00,VWS V14.01,2013-04-21 10:06:00,
2013-04-21 06:11:00,40.5,18.6,30.50,ENE,68,1.3,3.4,41,0.00,,SCT180,0.00,VWS V14.01,2013-04-21 10:11:00,
2013-04-21 06:16:00,40.5,18.6,30.50,NE,45,0.0,3.4,41,0.00,,SCT180,0.00,VWS V14.01,2013-04-21 10:16:00,
2013-04-21 06:21:00,40.6,18.8,30.50,NE,45,0.0,3.4,41,0.00,,SCT180,0.00,VWS V14.01,2013-04-21 10:21:00,
2013-04-21 06:26:00,40.6,18.8,30.50,North,0,1.1,3.4,41,0.00,,SCT180,0.00,VWS V14.01,2013-04-21 10:26:00,
2013-04-21 06:31:00,40.6,18.8,30.50,ENE,68,1.6,3.4,41,0.00,,SCT180,0.00,VWS V14.01,2013-04-21 10:31:00,
2013-04-21 06:36:00,40.6,18.8,30.50,NE,45,1.6,3.4,41,0.00,,SCT180,0.00,VWS V14.01,2013-04-21 10:36:00,
2013-04-21 06:41:00,40.6,18.8,30.50,NNE,22,0.0,3.4,41,0.00,,SCT180,0.00,VWS V14.01,2013-04-21 10:41:00,
2013-04-21 06:46:00,40.6,18.8,30.47,NE,45,0.0,3.4,41,0.00,,SCT180,0.00,VWS V14.01,2013-04-21 10:46:00,
2013-04-21 06:51:00,40.6,18.8,30.47,NNE,22,0.0,3.4,41,0.00,,SCT180,0.00,VWS V14.01,2013-04-21 10:51:00,
2013-04-21 06:56:00,40.6,18.8,30.47,NNE,22,0.0,3.4,41,0.00,,SCT180,0.00,VWS V14.01,2013-04-21 10:56:00,
2013-04-21 07:01:00,40.5,18.6,30.50,ENE,68,2.5,2.9,41,0.00,,BKN180,0.00,VWS V14.01,2013-04-21 11:01:00,
2013-04-21 07:06:00,40.5,18.6,30.50,NE,45,0.0,2.9,41,0.00,,BKN180,0.00,VWS V14.01,2013-04-21 11:06:00,
2013-04-21 07:11:00,40.3,18.5,30.50,ENE,68,0.0,2.9,41,0.00,,BKN180,0.00,VWS V14.01,2013-04-21 11:11:00,
2013-04-21 07:16:00,40.3,18.5,30.50,NNE,22,1.6,2.9,41,0.00,,BKN180,0.00,VWS V14.01,2013-04-21 11:16:00,
2013-04-21 07:21:00,40.3,18.5,30.50,North,0,2.5,2.9,41,0.00,,BKN180,0.00,VWS V14.01,2013-04-21 11:21:00,
2013-04-21 07:26:00,40.3,18.5,30.50,NNE,22,2.0,3.6,41,0.00,,BKN180,0.00,VWS V14.01,2013-04-21 11:26:00,
2013-04-21 07:31:00,40.6,18.8,30.50,East,90,0.0,3.6,41,0.00,,BKN180,0.00,VWS V14.01,2013-04-21 11:31:00,
2013-04-21 07:36:00,41.9,19.9,30.50,NNE,22,1.1,4.3,41,0.00,,BKN180,0.00,VWS V14.01,2013-04-21 11:36:00,
2013-04-21 07:41:00,42.8,20.2,30.50,ENE,68,2.9,4.3,40,0.00,,BKN180,0.00,VWS V14.01,2013-04-21 11:41:00,
2013-04-21 07:46:00,43.2,19.9,30.50,ENE,68,1.6,4.5,39,0.00,,BKN180,0.00,VWS V14.01,2013-04-21 11:46:00,
2013-04-21 07:51:00,43.2,19.9,30.53,NNE,22,5.8,6.5,39,0.00,,BKN180,0.00,VWS V14.01,2013-04-21 11:51:00,
2013-04-21 07:56:00,43.3,20.1,30.53,ENE,68,0.9,6.5,39,0.00,,BKN180,0.00,VWS V14.01,2013-04-21 11:56:00,
2013-04-21 08:01:00,43.5,19.6,30.53,ENE,68,0.9,2.9,38,0.00,,CLR,0.00,VWS V14.01,2013-04-21 12:01:00,
2013-04-21 08:06:00,44.8,20.1,30.53,ENE,68,3.6,4.3,37,0.00,,CLR,0.00,VWS V14.01,2013-04-21 12:06:00,
2013-04-21 08:11:00,45.3,20.6,30.53,ENE,68,3.1,4.3,37,0.00,,CLR,0.00,VWS V14.01,2013-04-21 12:11:00,
2013-04-21 08:16:00,46.2,20.1,30.53,ESE,112,1.1,5.6,35,0.00,,CLR,0.00,VWS V14.01,2013-04-21 12:16:00,
2013-04-21 08:21:00,46.8,19.9,30.53,ENE,68,3.4,5.6,34,0.00,,CLR,0.00,VWS V14.01,2013-04-21 12:21:00,
2013-04-21 08:26:00,47.3,19.7,30.53,ENE,68,3.1,5.6,33,0.00,,CLR,0.00,VWS V14.01,2013-04-21 12:26:00,
2013-04-21 08:31:00,47.5,19.8,30.53,ESE,112,1.3,5.6,33,0.00,,CLR,0.00,VWS V14.01,2013-04-21 12:31:00,
2013-04-21 08:36:00,47.7,18.5,30.53,ESE,112,2.5,5.6,31,0.00,,CLR,0.00,VWS V14.01,2013-04-21 12:36:00,
2013-04-21 08:41:00,47.5,17.6,30.53,NE,45,2.5,6.5,30,0.00,,CLR,0.00,VWS V14.01,2013-04-21 12:41:00,
2013-04-21 08:46:00,47.3,16.7,30.53,NE,45,2.5,6.5,29,0.00,,CLR,0.00,VWS V14.01,2013-04-21 12:46:00,
2013-04-21 08:51:00,47.3,17.5,30.53,West,270,2.7,6.5,30,0.00,,CLR,0.00,VWS V14.01,2013-04-21 12:51:00,
2013-04-21 08:56:00,47.5,17.6,30.53,ENE,68,2.0,6.5,30,0.00,,CLR,0.00,VWS V14.01,2013-04-21 12:56:00,
2013-04-21 09:01:00,47.7,17.8,30.53,SSE,158,2.0,4.0,30,0.00,,CLR,0.00,VWS V14.01,2013-04-21 13:01:00,
2013-04-21 09:06:00,47.8,18.7,30.53,NNW,338,0.0,5.6,31,0.00,,CLR,0.00,VWS V14.01,2013-04-21 13:06:00,
2013-04-21 09:11:00,47.8,17.9,30.53,NE,45,4.0,5.8,30,0.00,,CLR,0.00,VWS V14.01,2013-04-21 13:11:00,
2013-04-21 09:16:00,48.0,18.8,30.53,ESE,112,2.7,5.8,31,0.00,,CLR,0.00,VWS V14.01,2013-04-21 13:16:00,
2013-04-21 09:21:00,48.7,19.5,30.53,SSE,158,2.9,5.8,31,0.00,,CLR,0.00,VWS V14.01,2013-04-21 13:21:00,
2013-04-21 09:26:00,49.1,18.2,30.53,ENE,68,3.1,6.5,29,0.00,,CLR,0.00,VWS V14.01,2013-04-21 13:26:00,
2013-04-21 09:31:00,48.9,18.1,30.53,ESE,112,2.0,6.5,29,0.00,,CLR,0.00,VWS V14.01,2013-04-21 13:31:00,
2013-04-21 09:36:00,49.5,19.3,30.53,NE,45,1.3,6.5,30,0.00,,CLR,0.00,VWS V14.01,2013-04-21 13:36:00,
2013-04-21 09:41:00,50.0,19.0,30.53,ENE,68,1.3,6.5,29,0.00,,CLR,0.00,VWS V14.01,2013-04-21 13:41:00,
2013-04-21 09:46:00,50.0,17.4,30.53,ENE,68,3.8,6.5,27,0.00,,CLR,0.00,VWS V14.01,2013-04-21 13:46:00,
2013-04-21 09:51:00,50.2,18.4,30.53,ESE,112,2.5,6.5,28,0.00,,CLR,0.00,VWS V14.01,2013-04-21 13:51:00,
2013-04-21 09:56:00,50.5,17.8,30.53,ESE,112,2.7,10.5,27,0.00,,CLR,0.00,VWS V14.01,2013-04-21 13:56:00,
2013-04-21 10:01:00,50.2,17.5,30.53,ENE,68,2.0,7.4,27,0.00,,CLR,0.00,VWS V14.01,2013-04-21 14:01:00,
2013-04-21 10:06:00,50.4,17.7,30.53,SSE,158,3.6,9.6,27,0.00,,CLR,0.00,VWS V14.01,2013-04-21 14:06:00,
2013-04-21 10:11:00,50.9,18.1,30.53,NNW,338,1.3,9.6,27,0.00,,CLR,0.00,VWS V14.01,2013-04-21 14:11:00,
2013-04-21 10:16:00,51.1,18.3,30.53,ENE,68,5.6,9.6,27,0.00,,CLR,0.00,VWS V14.01,2013-04-21 14:16:00,
2013-04-21 10:21:00,51.1,18.3,30.53,SSE,158,0.0,9.6,27,0.00,,CLR,0.00,VWS V14.01,2013-04-21 14:21:00,
2013-04-21 10:26:00,51.3,18.4,30.53,ESE,112,2.9,9.6,27,0.00,,CLR,0.00,VWS V14.01,2013-04-21 14:26:00,
2013-04-21 10:31:00,51.3,18.4,30.53,ESE,112,3.8,9.6,27,0.00,,CLR,0.00,VWS V14.01,2013-04-21 14:31:00,
2013-04-21 10:36:00,51.8,18.9,30.53,ENE,68,3.4,9.6,27,0.00,,CLR,0.00,VWS V14.01,2013-04-21 14:36:00,
2013-04-21 10:41:00,52.2,19.2,30.53,SE,135,0.0,9.6,27,0.00,,CLR,0.00,VWS V14.01,2013-04-21 14:41:00,
2013-04-21 10:46:00,52.5,19.5,30.53,SSE,158,2.2,9.6,27,0.00,,CLR,0.00,VWS V14.01,2013-04-21 14:46:00,
2013-04-21 10:51:00,53.1,20.0,30.53,SSW,202,4.3,9.6,27,0.00,,CLR,0.00,VWS V14.01,2013-04-21 14:51:00,
2013-04-21 10:56:00,53.4,20.3,30.53,ESE,112,4.3,9.6,27,0.00,,CLR,0.00,VWS V14.01,2013-04-21 14:56:00,
2013-04-21 11:01:00,53.8,19.7,30.53,SSW,202,5.6,5.6,26,0.00,,CLR,0.00,VWS V14.01,2013-04-21 15:01:00,
2013-04-21 11:05:00,54.0,19.9,30.53,SSE,158,2.5,5.6,26,0.00,,CLR,0.00,VWS V14.01,2013-04-21 15:05:00,
2013-04-21 11:10:00,54.5,20.3,30.53,ENE,68,2.7,5.6,26,0.00,,CLR,0.00,VWS V14.01,2013-04-21 15:10:00,
2013-04-21 11:15:00,54.5,20.3,30.53,ESE,112,2.0,5.6,26,0.00,,CLR,0.00,VWS V14.01,2013-04-21 15:15:00,
2013-04-21 11:20:00,55.2,21.0,30.53,ENE,68,1.1,5.8,26,0.00,,CLR,0.00,VWS V14.01,2013-04-21 15:20:00,
2013-04-21 11:25:00,55.4,20.2,30.53,ENE,68,1.1,5.8,25,0.00,,CLR,0.00,VWS V14.01,2013-04-21 15:25:00,
2013-04-21 11:30:00,55.2,20.0,30.53,East,90,5.4,5.8,25,0.00,,CLR,0.00,VWS V14.01,2013-04-21 15:30:00,
2013-04-21 11:35:00,55.4,20.2,30.53,ENE,68,1.6,5.8,25,0.00,,CLR,0.00,VWS V14.01,2013-04-21 15:35:00,
2013-04-21 11:40:00,55.4,20.2,30.53,NE,45,2.9,5.8,25,0.00,,CLR,0.00,VWS V14.01,2013-04-21 15:40:00,
2013-04-21 11:45:00,55.9,20.6,30.53,NE,45,3.1,5.8,25,0.00,,CLR,0.00,VWS V14.01,2013-04-21 15:45:00,
2013-04-21 11:50:00,56.5,21.1,30.53,ENE,68,2.5,5.8,25,0.00,,CLR,0.00,VWS V14.01,2013-04-21 15:50:00,
2013-04-21 11:55:00,56.8,21.4,30.53,East,90,2.9,6.0,25,0.00,,CLR,0.00,VWS V14.01,2013-04-21 15:55:00,
2013-04-21 12:00:00,57.4,20.9,30.53,South,180,3.4,5.6,24,0.00,,CLR,0.00,VWS V14.01,2013-04-21 16:00:00,
2013-04-21 12:05:00,57.9,22.3,30.53,SSE,158,0.9,5.6,25,0.00,,CLR,0.00,VWS V14.01,2013-04-21 16:05:00,
2013-04-21 12:10:00,58.6,22.0,30.53,ENE,68,2.7,5.6,24,0.00,,CLR,0.00,VWS V14.01,2013-04-21 16:10:00,
2013-04-21 12:15:00,58.5,19.8,30.53,ENE,68,3.1,7.6,22,0.00,,CLR,0.00,VWS V14.01,2013-04-21 16:15:00,
2013-04-21 12:20:00,58.5,19.8,30.53,NNE,22,4.9,7.6,22,0.00,,CLR,0.00,VWS V14.01,2013-04-21 16:20:00,
2013-04-21 12:25:00,59.2,20.4,30.53,WNW,292,2.7,7.6,22,0.00,,CLR,0.00,VWS V14.01,2013-04-21 16:25:00,
2013-04-21 12:30:00,59.4,20.5,30.50,SSE,158,2.9,7.6,22,0.00,,CLR,0.00,VWS V14.01,2013-04-21 16:30:00,
2013-04-21 12:35:00,59.2,20.4,30.50,South,180,3.1,7.6,22,0.00,,CLR,0.00,VWS V14.01,2013-04-21 16:35:00,
2013-04-21 12:40:00,59.5,20.7,30.50,SE,135,2.5,7.6,22,0.00,,CLR,0.00,VWS V14.01,2013-04-21 16:40:00,
2013-04-21 12:45:00,59.5,20.7,30.50,SSE,158,1.6,7.6,22,0.00,,CLR,0.00,VWS V14.01,2013-04-21 16:45:00,
2013-04-21 12:50:00,60.1,21.1,30.50,ESE,112,2.9,8.1,22,0.00,,CLR,0.00,VWS V14.01,2013-04-21 16:50:00,
2013-04-21 12:55:00,60.6,21.6,30.50,SSW,202,2.9,8.1,22,0.00,,CLR,0.00,VWS V14.01,2013-04-21 16:55:00,
2013-04-21 13:00:00,61.0,20.8,30.47,South,180,4.7,8.5,21,0.00,,CLR,0.00,VWS V14.01,2013-04-21 17:00:00,
2013-04-21 13:05:00,61.3,21.1,30.47,ESE,112,4.3,8.5,21,0.00,,CLR,0.00,VWS V14.01,2013-04-21 17:05:00,
2013-04-21 13:10:00,61.5,21.2,30.47,ESE,112,2.5,8.5,21,0.00,,CLR,0.00,VWS V14.01,2013-04-21 17:10:00,
2013-04-21 13:15:00,61.2,18.6,30.50,SSE,158,5.8,8.5,19,0.00,,CLR,0.00,VWS V14.01,2013-04-21 17:15:00,
2013-04-21 13:20:00,61.9,21.5,30.50,SSE,158,1.6,8.5,21,0.00,,CLR,0.00,VWS V14.01,2013-04-21 17:20:00,
2013-04-21 13:25:00,61.9,19.2,30.50,ENE,68,2.7,8.5,19,0.00,,CLR,0.00,VWS V14.01,2013-04-21 17:25:00,
2013-04-21 13:30:00,61.5,18.9,30.50,SSW,202,5.4,8.5,19,0.00,,CLR,0.00,VWS V14.01,2013-04-21 17:30:00,
2013-04-21 13:35:00,62.1,19.3,30.50,SSW,202,5.8,8.5,19,0.00,,CLR,0.00,VWS V14.01,2013-04-21 17:35:00,
2013-04-21 13:40:00,63.1,19.0,30.50,ESE,112,5.6,8.5,18,0.00,,CLR,0.00,VWS V14.01,2013-04-21 17:40:00,
2013-04-21 13:45:00,63.7,19.4,30.47,ENE,68,3.4,8.5,18,0.00,,CLR,0.00,VWS V14.01,2013-04-21 17:45:00,
2013-04-21 13:50:00,63.0,18.8,30.47,ESE,112,5.4,8.5,18,0.00,,CLR,0.00,VWS V14.01,2013-04-21 17:50:00,
2013-04-21 13:55:00,62.8,18.7,30.47,North,0,4.3,8.5,18,0.00,,CLR,0.00,VWS V14.01,2013-04-21 17:55:00,
2013-04-21 14:00:00,62.6,18.5,30.47,ENE,68,4.7,6.5,18,0.00,,CLR,0.00,VWS V14.01,2013-04-21 18:00:00,
2013-04-21 14:05:00,62.6,18.5,30.47,ENE,68,4.3,6.5,18,0.00,,CLR,0.00,VWS V14.01,2013-04-21 18:05:00,
2013-04-21 14:10:00,62.2,19.5,30.47,ESE,112,1.6,6.5,19,0.00,,CLR,0.00,VWS V14.01,2013-04-21 18:10:00,
2013-04-21 14:15:00,63.1,19.0,30.44,East,90,7.8,8.5,18,0.00,,CLR,0.00,VWS V14.01,2013-04-21 18:15:00,
2013-04-21 14:20:00,63.1,19.0,30.44,SSE,158,3.4,8.5,18,0.00,,CLR,0.00,VWS V14.01,2013-04-21 18:20:00,
2013-04-21 14:25:00,63.7,19.4,30.44,NNE,22,4.0,8.5,18,0.00,,CLR,0.00,VWS V14.01,2013-04-21 18:25:00,
2013-04-21 14:30:00,63.9,19.6,30.41,NE,45,1.6,8.5,18,0.00,,CLR,0.00,VWS V14.01,2013-04-21 18:30:00,
2013-04-21 14:35:00,63.5,19.3,30.41,East,90,2.7,8.5,18,0.00,,CLR,0.00,VWS V14.01,2013-04-21 18:35:00,
2013-04-21 14:40:00,63.5,19.3,30.41,ESE,112,1.3,8.5,18,0.00,,CLR,0.00,VWS V14.01,2013-04-21 18:40:00,
2013-04-21 14:45:00,63.5,16.5,30.44,NE,45,2.0,8.5,16,0.00,,CLR,0.00,VWS V14.01,2013-04-21 18:45:00,
2013-04-21 14:50:00,63.5,16.5,30.44,NNE,22,0.9,8.5,16,0.00,,CLR,0.00,VWS V14.01,2013-04-21 18:50:00,
2013-04-21 14:55:00,63.9,19.6,30.44,North,0,4.9,8.5,18,0.00,,CLR,0.00,VWS V14.01,2013-04-21 18:55:00,
2013-04-21 15:00:00,64.0,17.0,30.44,SSE,158,1.3,7.2,16,0.00,,CLR,0.00,VWS V14.01,2013-04-21 19:00:00,
2013-04-21 15:05:00,64.2,19.9,30.44,ESE,112,2.5,7.2,18,0.00,,BKN250,0.00,VWS V14.01,2013-04-21 19:05:00,
2013-04-21 15:10:00,64.4,15.8,30.44,SE,135,1.3,7.2,15,0.00,,BKN250,0.00,VWS V14.01,2013-04-21 19:10:00,
2013-04-21 15:15:00,64.4,15.8,30.44,South,180,3.8,7.2,15,0.00,,BKN250,0.00,VWS V14.01,2013-04-21 19:15:00,
2013-04-21 15:20:00,64.4,15.8,30.44,East,90,1.3,7.2,15,0.00,,BKN250,0.00,VWS V14.01,2013-04-21 19:20:00,
2013-04-21 15:25:00,64.8,16.1,30.44,North,0,2.5,7.2,15,0.00,,BKN250,0.00,VWS V14.01,2013-04-21 19:25:00,
2013-04-21 15:30:00,65.1,20.6,30.44,WNW,292,2.5,7.2,18,0.00,,BKN250,0.00,VWS V14.01,2013-04-21 19:30:00,
2013-04-21 15:35:00,64.9,16.2,30.41,North,0,2.2,7.2,15,0.00,,BKN250,0.00,VWS V14.01,2013-04-21 19:35:00,
2013-04-21 15:40:00,64.9,16.2,30.41,NNE,22,0.0,7.2,15,0.00,,BKN250,0.00,VWS V14.01,2013-04-21 19:40:00,
2013-04-21 15:45:00,64.9,16.2,30.41,ENE,68,4.9,7.2,15,0.00,,BKN250,0.00,VWS V14.01,2013-04-21 19:45:00,
2013-04-21 15:50:00,64.8,16.1,30.41,ENE,68,12.3,12.3,15,0.00,,BKN250,0.00,VWS V14.01,2013-04-21 19:50:00,
2013-04-21 15:55:00,64.4,15.8,30.41,NNE,22,6.0,12.3,15,0.00,,BKN250,0.00,VWS V14.01,2013-04-21 19:55:00,
2013-04-21 16:00:00,64.4,15.8,30.41,ENE,68,1.6,3.8,15,0.00,,BKN250,0.00,VWS V14.01,2013-04-21 20:00:00,
2013-04-21 16:05:00,64.2,17.1,30.41,ENE,68,1.6,4.9,16,0.00,,BKN250,0.00,VWS V14.01,2013-04-21 20:05:00,
2013-04-21 16:10:00,64.6,15.9,30.41,ESE,112,2.9,4.9,15,0.00,,BKN250,0.00,VWS V14.01,2013-04-21 20:10:00,
2013-04-21 16:15:00,65.1,16.4,30.39,NNE,22,3.8,5.6,15,0.00,,BKN250,0.00,VWS V14.01,2013-04-21 20:15:00,
2013-04-21 16:20:00,65.3,16.5,30.39,NNE,22,1.6,5.6,15,0.00,,BKN250,0.00,VWS V14.01,2013-04-21 20:20:00,
2013-04-21 16:25:00,65.5,16.6,30.39,ESE,112,3.6,5.6,15,0.00,,BKN250,0.00,VWS V14.01,2013-04-21 20:25:00,
2013-04-21 16:30:00,65.1,16.4,30.39,South,180,3.6,6.0,15,0.00,,BKN250,0.00,VWS V14.01,2013-04-21 20:30:00,
2013-04-21 16:35:00,65.5,16.6,30.39,ENE,68,4.3,6.5,15,0.00,,BKN250,0.00,VWS V14.01,2013-04-21 20:35:00,
2013-04-21 16:40:00,65.7,16.8,30.39,North,0,1.6,6.5,15,0.00,,BKN250,0.00,VWS V14.01,2013-04-21 20:40:00,
2013-04-21 16:45:00,65.7,16.8,30.39,ESE,112,2.0,6.5,15,0.00,,BKN250,0.00,VWS V14.01,2013-04-21 20:45:00,
2013-04-21 16:50:00,65.1,16.4,30.39,North,0,2.7,6.5,15,0.00,,BKN250,0.00,VWS V14.01,2013-04-21 20:50:00,
2013-04-21 16:55:00,65.3,16.5,30.39,SSE,158,2.0,6.5,15,0.00,,BKN250,0.00,VWS V14.01,2013-04-21 20:55:00,
2013-04-21 17:00:00,65.8,16.9,30.39,SE,135,3.4,6.3,15,0.00,,BKN250,0.00,VWS V14.01,2013-04-21 21:00:00,
2013-04-21 17:07:00,66.6,17.5,30.39,SSE,158,2.7,3.1,15,0.00,,BKN250,0.00,VWS V14.01,2013-04-21 21:07:00,
2013-04-21 17:12:00,66.2,17.2,30.39,NNE,22,2.2,5.4,15,0.00,,BKN250,0.00,VWS V14.01,2013-04-21 21:12:00,
2013-04-21 17:17:00,66.4,17.4,30.36,ESE,112,2.9,5.4,15,0.00,,BKN250,0.00,VWS V14.01,2013-04-21 21:17:00,
2013-04-21 17:22:00,65.8,16.9,30.36,ENE,68,2.5,5.6,15,0.00,,BKN250,0.00,VWS V14.01,2013-04-21 21:22:00,
2013-04-21 17:27:00,66.2,17.2,30.36,SSE,158,2.7,5.6,15,0.00,,BKN250,0.00,VWS V14.01,2013-04-21 21:27:00,
2013-04-21 17:32:00,66.0,17.1,30.39,ENE,68,0.0,5.6,15,0.00,,BKN250,0.00,VWS V14.01,2013-04-21 21:32:00,
2013-04-21 17:37:00,65.7,16.8,30.39,SE,135,1.1,7.2,15,0.00,,BKN250,0.00,VWS V14.01,2013-04-21 21:37:00,
2013-04-21 17:42:00,65.7,16.8,30.39,NNW,338,2.7,7.2,15,0.00,,BKN250,0.00,VWS V14.01,2013-04-21 21:42:00,
2013-04-21 17:47:00,66.0,17.1,30.36,NNE,22,1.6,7.2,15,0.00,,BKN250,0.00,VWS V14.01,2013-04-21 21:47:00,
2013-04-21 17:52:00,65.8,16.9,30.36,ESE,112,2.7,7.2,15,0.00,,BKN250,0.00,VWS V14.01,2013-04-21 21:52:00,
2013-04-21 17:57:00,65.8,16.9,30.36,SSE,158,3.8,7.2,15,0.00,,BKN250,0.00,VWS V14.01,2013-04-21 21:57:00,
2013-04-21 18:02:00,65.8,16.9,30.39,SSW,202,1.6,4.0,15,0.00,,BKN250,0.00,VWS V14.01,2013-04-21 22:02:00,
2013-04-21 18:07:00,66.0,17.1,30.39,ENE,68,1.6,4.0,15,0.00,,BKN250,0.00,VWS V14.01,2013-04-21 22:07:00,
2013-04-21 18:12:00,65.8,16.9,30.39,ESE,112,3.6,6.0,15,0.00,,BKN250,0.00,VWS V14.01,2013-04-21 22:12:00,
2013-04-21 18:17:00,65.7,16.8,30.39,SE,135,5.8,6.0,15,0.00,,BKN250,0.00,VWS V14.01,2013-04-21 22:17:00,
2013-04-21 18:22:00,65.3,16.5,30.39,SSE,158,1.6,6.0,15,0.00,,BKN250,0.00,VWS V14.01,2013-04-21 22:22:00,
2013-04-21 18:27:00,64.6,15.9,30.39,ESE,112,3.4,6.0,15,0.00,,BKN250,0.00,VWS V14.01,2013-04-21 22:27:00,
2013-04-21 18:32:00,64.0,17.0,30.39,ENE,68,0.9,6.0,16,0.00,,BKN250,0.00,VWS V14.01,2013-04-21 22:32:00,
2013-04-21 18:37:00,63.5,16.5,30.39,SSE,158,3.6,7.6,16,0.00,,BKN250,0.00,VWS V14.01,2013-04-21 22:37:00,
2013-04-21 18:42:00,63.0,16.1,30.39,NNE,22,1.6,7.6,16,0.00,,BKN250,0.00,VWS V14.01,2013-04-21 22:42:00,
2013-04-21 18:47:00,62.8,15.9,30.39,SSE,158,3.4,7.6,16,0.00,,BKN250,0.00,VWS V14.01,2013-04-21 22:47:00,
2013-04-21 18:52:00,62.4,15.7,30.39,SE,135,2.5,7.6,16,0.00,,BKN250,0.00,VWS V14.01,2013-04-21 22:52:00,
2013-04-21 18:57:00,62.2,15.5,30.39,SSW,202,2.7,7.6,16,0.00,,BKN250,0.00,VWS V14.01,2013-04-21 22:57:00,
2013-04-21 19:02:00,62.1,15.4,30.36,East,90,3.1,5.6,16,0.00,,BKN250,0.00,VWS V14.01,2013-04-21 23:02:00,
2013-04-21 19:07:00,61.7,15.1,30.36,South,180,3.6,5.6,16,0.00,,BKN250,0.00,VWS V14.01,2013-04-21 23:07:00,
2013-04-21 19:12:00,61.7,15.1,30.36,ENE,68,5.4,8.7,16,0.00,,BKN250,0.00,VWS V14.01,2013-04-21 23:12:00,
2013-04-21 19:17:00,61.5,14.9,30.39,ESE,112,1.3,8.7,16,0.00,,BKN250,0.00,VWS V14.01,2013-04-21 23:17:00,
2013-04-21 19:22:00,61.2,14.6,30.39,SE,135,3.4,8.7,16,0.00,,BKN250,0.00,VWS V14.01,2013-04-21 23:22:00,
2013-04-21 19:27:00,61.0,14.5,30.39,ESE,112,1.1,8.7,16,0.00,,BKN250,0.00,VWS V14.01,2013-04-21 23:27:00,
2013-04-21 19:32:00,60.6,15.6,30.39,South,180,2.5,8.7,17,0.00,,BKN250,0.00,VWS V14.01,2013-04-21 23:32:00,
2013-04-21 19:37:00,60.3,15.3,30.39,ESE,112,2.9,8.7,17,0.00,,BKN250,0.00,VWS V14.01,2013-04-21 23:37:00,
2013-04-21 19:42:00,60.1,15.1,30.39,NE,45,0.9,8.7,17,0.00,,BKN250,0.00,VWS V14.01,2013-04-21 23:42:00,
2013-04-21 19:47:00,59.9,15.0,30.39,SSE,158,2.5,8.7,17,0.00,,BKN250,0.00,VWS V14.01,2013-04-21 23:47:00,
2013-04-21 19:52:00,59.5,14.7,30.39,ESE,112,7.6,8.7,17,0.00,,BKN250,0.00,VWS V14.01,2013-04-21 23:52:00,
2013-04-21 19:57:00,59.4,14.6,30.39,SE,135,1.3,8.7,17,0.00,,BKN250,0.00,VWS V14.01,2013-04-21 23:57:00,
2013-04-21 20:01:00,59.2,14.4,30.39,South,180,1.6,3.1,17,0.00,,BKN250,0.00,VWS V14.01,2013-04-22 00:01:00,
2013-04-21 20:06:00,58.8,14.1,30.39,ENE,68,2.9,3.6,17,0.00,,BKN250,0.00,VWS V14.01,2013-04-22 00:06:00,
2013-04-21 20:11:00,58.5,13.8,30.39,ESE,112,4.3,9.4,17,0.00,,BKN250,0.00,VWS V14.01,2013-04-22 00:11:00,
2013-04-21 20:16:00,58.3,13.7,30.39,ESE,112,2.0,9.4,17,0.00,,BKN250,0.00,VWS V14.01,2013-04-22 00:16:00,
2013-04-21 20:21:00,57.9,13.4,30.39,SSE,158,3.1,9.4,17,0.00,,BKN250,0.00,VWS V14.01,2013-04-22 00:21:00,
2013-04-21 20:26:00,57.6,13.1,30.39,SSE,158,3.1,9.4,17,0.00,,BKN250,0.00,VWS V14.01,2013-04-22 00:26:00,
2013-04-21 20:31:00,57.4,15.5,30.36,ENE,68,2.5,9.4,19,0.00,,BKN250,0.00,VWS V14.01,2013-04-22 00:31:00,
2013-04-21 20:36:00,57.2,15.3,30.36,NE,45,1.3,9.4,19,0.00,,BKN250,0.00,VWS V14.01,2013-04-22 00:36:00,
2013-04-21 20:41:00,56.8,16.2,30.36,ESE,112,1.1,9.4,20,0.00,,BKN250,0.00,VWS V14.01,2013-04-22 00:41:00,
2013-04-21 20:46:00,56.7,16.1,30.39,SSE,158,0.0,9.4,20,0.00,,BKN250,0.00,VWS V14.01,2013-04-22 00:46:00,
2013-04-21 20:51:00,56.5,15.9,30.39,ESE,112,0.0,9.4,20,0.00,,BKN250,0.00,VWS V14.01,2013-04-22 00:51:00,
2013-04-21 20:56:00,56.1,15.6,30.39,SE,135,0.0,9.4,20,0.00,,BKN250,0.00,VWS V14.01,2013-04-22 00:56:00,
2013-04-21 21:01:00,55.9,15.5,30.39,ESE,112,0.0,1.6,20,0.00,,BKN250,0.00,VWS V14.01,2013-04-22 01:01:00,
2013-04-21 21:06:00,55.6,15.2,30.39,ESE,112,0.0,1.6,20,0.00,,BKN250,0.00,VWS V14.01,2013-04-22 01:06:00,
2013-04-21 21:11:00,55.4,15.0,30.39,ESE,112,0.0,1.6,20,0.00,,BKN250,0.00,VWS V14.01,2013-04-22 01:11:00,
2013-04-21 21:16:00,55.0,14.7,30.39,ESE,112,0.0,1.6,20,0.00,,BKN250,0.00,VWS V14.01,2013-04-22 01:16:00,
2013-04-21 21:21:00,54.7,14.4,30.39,ESE,112,0.0,1.6,20,0.00,,BKN250,0.00,VWS V14.01,2013-04-22 01:21:00,
2013-04-21 21:26:00,54.5,14.3,30.39,ESE,112,0.0,1.6,20,0.00,,BKN250,0.00,VWS V14.01,2013-04-22 01:26:00,
2013-04-21 21:31:00,54.1,14.0,30.39,ESE,112,0.0,1.6,20,0.00,,BKN250,0.00,VWS V14.01,2013-04-22 01:31:00,
2013-04-21 21:36:00,53.8,13.7,30.39,ESE,112,0.0,1.6,20,0.00,,BKN250,0.00,VWS V14.01,2013-04-22 01:36:00,
2013-04-21 21:41:00,53.6,13.5,30.39,ESE,112,0.0,1.6,20,0.00,,BKN250,0.00,VWS V14.01,2013-04-22 01:41:00,
2013-04-21 21:46:00,53.2,14.3,30.39,ESE,112,0.0,1.6,21,0.00,,BKN250,0.00,VWS V14.01,2013-04-22 01:46:00,
2013-04-21 21:51:00,53.1,14.2,30.39,ESE,112,0.0,1.6,21,0.00,,BKN250,0.00,VWS V14.01,2013-04-22 01:51:00,
2013-04-21 21:56:00,52.9,16.1,30.39,ESE,112,0.0,1.6,23,0.00,,BKN250,0.00,VWS V14.01,2013-04-22 01:56:00,
2013-04-21 22:01:00,52.5,15.8,30.39,ESE,112,0.0,0.0,23,0.00,,SCT250,0.00,VWS V14.01,2013-04-22 02:01:00,
2013-04-21 22:06:00,52.3,15.7,30.39,ESE,112,0.0,0.0,23,0.00,,SCT250,0.00,VWS V14.01,2013-04-22 02:06:00,
2013-04-21 22:11:00,52.0,18.2,30.39,ESE,112,0.0,0.0,26,0.00,,SCT250,0.00,VWS V14.01,2013-04-22 02:11:00,
2013-04-21 22:16:00,51.8,18.0,30.39,ESE,112,0.0,0.0,26,0.00,,SCT250,0.00,VWS V14.01,2013-04-22 02:16:00,
2013-04-21 22:21:00,51.8,18.0,30.39,ESE,112,0.0,0.0,26,0.00,,SCT250,0.00,VWS V14.01,2013-04-22 02:21:00,
2013-04-21 22:26:00,51.6,18.8,30.39,ESE,112,0.0,0.0,27,0.00,,SCT250,0.00,VWS V14.01,2013-04-22 02:26:00,
2013-04-21 22:31:00,51.4,18.6,30.39,ESE,112,0.0,0.0,27,0.00,,SCT250,0.00,VWS V14.01,2013-04-22 02:31:00,
2013-04-21 22:36:00,51.3,18.4,30.39,ESE,112,0.0,0.0,27,0.00,,SCT250,0.00,VWS V14.01,2013-04-22 02:36:00,
2013-04-21 22:41:00,51.1,18.3,30.39,ESE,112,0.0,0.0,27,0.00,,SCT250,0.00,VWS V14.01,2013-04-22 02:41:00,
2013-04-21 22:46:00,50.9,18.1,30.39,ESE,112,0.0,0.0,27,0.00,,SCT250,0.00,VWS V14.01,2013-04-22 02:46:00,
2013-04-21 22:51:00,50.7,18.8,30.39,ESE,112,0.0,0.0,28,0.00,,SCT250,0.00,VWS V14.01,2013-04-22 02:51:00,
2013-04-21 22:56:00,50.5,18.7,30.39,ESE,112,0.0,0.0,28,0.00,,SCT250,0.00,VWS V14.01,2013-04-22 02:56:00,
2013-04-21 23:01:00,50.4,19.3,30.39,ESE,112,0.0,0.0,29,0.00,,CLR,0.00,VWS V14.01,2013-04-22 03:01:00,
2013-04-21 23:06:00,50.2,19.2,30.39,ESE,112,0.0,0.0,29,0.00,,CLR,0.00,VWS V14.01,2013-04-22 03:06:00,
2013-04-21 23:11:00,50.0,19.8,30.39,ESE,112,0.0,0.0,30,0.00,,CLR,0.00,VWS V14.01,2013-04-22 03:11:00,
2013-04-21 23:16:00,50.0,19.8,30.39,ESE,112,0.0,0.0,30,0.00,,CLR,0.00,VWS V14.01,2013-04-22 03:16:00,
2013-04-21 23:21:00,49.8,20.4,30.39,ESE,112,0.0,0.0,31,0.00,,CLR,0.00,VWS V14.01,2013-04-22 03:21:00,
2013-04-21 23:26:00,49.6,20.3,30.39,ESE,112,0.0,0.0,31,0.00,,CLR,0.00,VWS V14.01,2013-04-22 03:26:00,
2013-04-21 23:31:00,49.6,20.3,30.41,NNE,22,0.0,2.2,31,0.00,,CLR,0.00,VWS V14.01,2013-04-22 03:31:00,
2013-04-21 23:36:00,49.6,21.0,30.41,NNE,22,0.0,2.2,32,0.00,,CLR,0.00,VWS V14.01,2013-04-22 03:36:00,
2013-04-21 23:41:00,49.5,20.1,30.41,NNE,22,0.0,2.2,31,0.00,,CLR,0.00,VWS V14.01,2013-04-22 03:41:00,
2013-04-21 23:46:00,49.3,20.7,30.39,NNE,22,0.0,2.2,32,0.00,,CLR,0.00,VWS V14.01,2013-04-22 03:46:00,
2013-04-21 23:51:00,49.3,20.7,30.39,NNE,22,0.0,2.2,32,0.00,,CLR,0.00,VWS V14.01,2013-04-22 03:51:00,
2013-04-21 23:56:00,49.1,22.0,30.39,NNE,22,0.0,2.2,34,0.00,,CLR,0.00,VWS V14.01,2013-04-22 03:56:00,